STARLINK-1867 (47153 NORAD) Tracking and Keplerian Element Data
This shows tracking and keplerian element data for the satellite.
Feedback or suggestion? Click here.
Element | Value |
Catalog | 47153 |
Name | STARLINK-1867 |
Epoch Orbit | 887 |
Epoch Day | 16.16667824 |
Epoch Year | 2021 |
RAAN | 100.3326 |
Inclination | 53.0445 |
Eccentricity | 0.0001345 |
Argument of Perigee | 59.5744 |
Mean Anonmoly | 231.1959 |
Mean Motion | 15.29389416 |
Decay Rate | -0.01068439 |
L1 | 1 47153U 20088AH 21016.16667824 -.01068439 00000-0 -40344-1 0 9997 |
L2 | 2 47153 53.0445 100.3326 0001345 59.5744 231.1959 15.29389416 8876 |
Live tracking and technical data element details for STARLINK-1867 (NORAD 47153). STARLINK-1867 can be tracked NOW for your location showing map with azimuth and elevation plus other details from your city location.
Track the satellite on the map from your city or location and see movement details for azimuth, elevation, latitude, longitude, range, height, and movement on the map or in text.
IsCatalogInMostPopularTable: catalog: 47153, numindb: 22
Update: records affected: 1
GetName: 47153 STARLINK-1867
Hit Count: updated at: Sun, 17 Jan 2021 10:11:54 GMT